OneWeb SL0369

operational
NORAD ID: 49295 Int'l Des: 2021-090 Owner: ONEWEBN Country: UK Constellation: oneweb
LEOCIRCULARPOLARONEWEB_TYPE

OneWeb SL0369について

説明を読み込み中...

リアルタイム位置

3D地球を読み込み中...

次回通過

高度履歴

Altitude vs Time

uPlot chart will show altitude changes over time

軌道要素

1 49295U 21090S 25258.04282746 .00000022 00000-0 23104-4 0 9994
2 49295 87.9289 359.6898 0001730 99.7265 260.4063 13.19725357190128
Epoch: Sep 15, 2025 • Age: 16 hours

現在のステータス

高度 1202.4 km
速度 7.25 km/s
衛星直下点 -41.52°S, 64.05°W
打ち上げ日 Oct 14, 2021
運用期間 3.9 years
タイプ internet

技術仕様

分類 Payload
質量 148.00 kg
乾燥質量 140.00 kg
総質量 148.00 kg
長さ 1.30 m
直径 1.00 m
スパン 5.00 m
形状 Trapezoid+2 pan
製造者 ONEWUS
バスタイプ ARROW
フェーズステータス In Orbit
所有者/国 ONEWEBN/UK

大規模コンステレーション

Loading constellations...